Погода в Клируотере

США     27°57′56″N   82°48′00″W
темп.,
°C
ветер,
м/с
пор.,
м/с
влажн.,
%
обл.,
%
осадки,
мм/ч
давл.,
гПа
погр.,
м
21 октября, чт
чт2123:00+25вюв7859100 0.0 1021612
02:00+24вюв5863100 0.0 1020563
05:00+23в4666100 0.0 1020323
08:00+23в45685 0.0 1021283
11:00+26в34575 0.0 1021751
14:00+28юв23465 0.0 1019985
17:00+27сз43524 0.0 1018679
20:00+26ссз44625 0.0 1018337
22 октября, пт
пт2223:00+26всв456253 0.0 1019503
02:00+25юв466853 0.0 1018518
05:00+24юв447178 0.0 1017384
08:00+24вюв33725 0.0 1017262
11:00+26вюв22615 0.0 1018549
14:00+28зюз125220 0.0 1016833
17:00+27сз43592 0.0 1015666
20:00+26ссз44640 0.0 1016339
23 октября, сб
сб2323:00+26с34665 0.0 1016342
02:00+25всв34690 0.0 1016262
05:00+24всв33690 0.0 1015213
08:00+24всв23700 0.0 1016200
11:00+26всв34580 0.0 1017526
14:00+29ссв23510 0.0 1016926
17:00+29ссз44544 0.0 1014819
20:00+28св135718 0.0 1015548
24 октября, вс
вс2423:00+26вюв69646 0.0 1016521
02:00+25в5872100 0.0 1016437
05:00+24в58785 0.0 1016382
08:00+24в588154 0.0 1017392
11:00+26вюв6769100 0.0 1018741
14:00+29юв4559100 0.0 1017785
17:00+29всв3459100 0.2 1016809
20:00+28в6865100 0.3 1017387
25 октября, пн
пн2523:00+26в6970100 0.0 1018515
02:00+25вюв5875100 0.0 1018466
05:00+25в4778100 0.0 1017361
08:00+25в4680100 0.0 1018311
11:00+26в4571100 0.0 1018582
14:00+29в2361100 0.0 1016680
17:00+29ссз446192 0.0 1015762
20:00+27ссз456899 0.0 1016202